Natchitoches, LA

8:19 PM CST on November 16, 2019 (GMT -0600)
Natchitoches Regional

Weather History for KIER - September, 2019

Change the Weather History Date:

Friday, September 27, 2019

  Actual Average Record
Temperature  
Mean Temperature 78 °F -  
Max Temperature 94 °F 84 °F 101 °F (1953)
Min Temperature 64 °F 60 °F 46 °F (2000)
Cooling Degree Days 14    
Growing Degree Days 28 (Base 50)    
Moisture  
Dew Point 67 °F    
Average Humidity 72    
Maximum Humidity 100    
Minimum Humidity 38    
Precipitation  
Precipitation 0.00 in - - ()
Sea Level Pressure  
Sea Level Pressure 29.90 in    
Wind  
Wind Speed 3 mph (South)    
Max Wind Speed 14 mph    
Max Gust Speed 22 mph    
Visibility 9 miles    
Events Fog    
Averages and records for this station are not official NWS values.
T = Trace of Precipitation, MM = Missing Value Source: NWS Daily Summary

Daily Weather History Graph

Daily Weather History Graph

Search for Another Location

Airport or City:

Astronomy

Sep. 27, 2019 Rise Set
Actual Time 7:03 AM CDT 7:02 PM CDT
Civil Twilight 6:39 AM CDT 7:27 PM CDT
Nautical Twilight 6:10 AM CDT 7:55 PM CDT
Astronomical Twilight 5:42 AM CDT 8:23 PM CDT
Moon 5:36 AM CDT (9/27) 6:46 PM CDT (9/27)
Length of Visible Light 12h 47m
Length of Day
11h 59m
Waning Crescent, 2% of the Moon is Illuminated
Sep 27
Waning Crescent
Sep 28
New
Oct 5
First Quarter
Oct 13
Full
Oct 21
Last Quarter

Hourly Weather History & Observations

Time (CDT) Temp. Heat Index Dew Point Humidity Pressure Visibility Wind Dir Wind Speed Gust Speed Precip Events Conditions
12:15 AM 68.4 °F - 66.4 °F 93% 29.91 in 10.0 mi Calm Calm - N/A   Clear
12:35 AM 68.4 °F - 66.0 °F 92% 29.91 in 10.0 mi Calm Calm - N/A   Clear
12:55 AM 68.0 °F - 66.4 °F 95% 29.91 in 10.0 mi Calm Calm - N/A   Clear
1:15 AM 68.9 °F - 66.2 °F 91% 29.90 in 10.0 mi Calm Calm - N/A   Clear
1:35 AM 68.9 °F - 66.6 °F 92% 29.90 in 10.0 mi Calm Calm - N/A   Clear
1:55 AM 68.9 °F - 66.7 °F 93% 29.90 in 10.0 mi Calm Calm - N/A   Clear
2:15 AM 68.9 °F - 66.9 °F 93% 29.90 in 10.0 mi Calm Calm - N/A   Clear
2:35 AM 68.2 °F - 66.6 °F 95% 29.90 in 10.0 mi Calm Calm - N/A   Clear
2:55 AM 68.2 °F - 67.1 °F 96% 29.90 in 10.0 mi Calm Calm - N/A   Clear
3:15 AM 68.0 °F - 66.7 °F 96% 29.90 in 10.0 mi Calm Calm - N/A   Clear
3:35 AM 67.3 °F - 66.4 °F 97% 29.90 in 10.0 mi Calm Calm - N/A   Clear
3:55 AM 67.1 °F - 66.6 °F 98% 29.90 in 7.0 mi Calm Calm - N/A   Clear
4:15 AM 66.6 °F - 66.2 °F 99% 29.90 in 10.0 mi Calm Calm - N/A   Clear
4:35 AM 66.2 °F - 65.8 °F 99% 29.90 in 7.0 mi Calm Calm - N/A   Clear
4:55 AM 66.4 °F - 66.2 °F 99% 29.91 in 7.0 mi Calm Calm - N/A   Clear
5:15 AM 65.8 °F - 65.7 °F 99% 29.91 in 10.0 mi Calm Calm - N/A   Clear
5:35 AM 65.3 °F - 64.9 °F 99% 29.92 in 7.0 mi Calm Calm - N/A   Clear
5:55 AM 65.1 °F - 64.8 °F 99% 29.92 in 0.8 mi Calm Calm - N/A   Mist
6:15 AM 65.3 °F - 65.3 °F 100% 29.93 in 2.0 mi Calm Calm - N/A   Clear
6:35 AM 65.3 °F - 65.3 °F 100% 29.93 in 7.0 mi Calm Calm - N/A   Clear
6:55 AM 64.9 °F - 64.8 °F 99% 29.93 in 4.0 mi Calm Calm - N/A   Clear
7:15 AM 64.4 °F - 64.2 °F 99% 29.93 in 0.2 mi Calm Calm - N/A Fog Fog
7:35 AM 65.3 °F - 65.3 °F 100% 29.93 in 1.2 mi Calm Calm - N/A   Mist
7:55 AM 67.8 °F - 67.8 °F 100% 29.94 in 4.0 mi Calm Calm - N/A   Clear
8:15 AM 70.2 °F - 69.8 °F 99% 29.94 in 7.0 mi Calm Calm - N/A   Clear
8:35 AM 73.2 °F - 69.8 °F 89% 29.94 in 10.0 mi Calm Calm - N/A   Clear
8:55 AM 75.2 °F - 70.3 °F 85% 29.94 in 10.0 mi Calm Calm - N/A   Clear
9:15 AM 78.6 °F - 71.2 °F 78% 29.94 in 10.0 mi SE 3.5 mph - N/A   Clear
9:35 AM 80.1 °F 83.7 °F 71.6 °F 75% 29.95 in 10.0 mi SSE 3.5 mph - N/A   Clear
10:15 AM 84.0 °F 88.4 °F 70.2 °F 63% 29.96 in 10.0 mi South 9.2 mph - N/A   Clear
10:35 AM 82.2 °F 86.0 °F 69.6 °F 66% 29.96 in 10.0 mi South 6.9 mph - N/A   Scattered Clouds
10:55 AM 85.8 °F 90.4 °F 69.8 °F 59% 29.95 in 10.0 mi South 10.4 mph - N/A   Mostly Cloudy
11:15 AM 84.9 °F 88.2 °F 68.0 °F 57% 29.95 in 10.0 mi South 10.4 mph - N/A   Mostly Cloudy
11:35 AM 86.0 °F 89.4 °F 68.2 °F 55% 29.95 in 10.0 mi South 10.4 mph - N/A   Scattered Clouds
11:55 AM 87.6 °F 91.5 °F 68.5 °F 53% 29.94 in 10.0 mi South 10.4 mph 17.3 mph N/A   Scattered Clouds
12:15 PM 87.8 °F 91.4 °F 68.2 °F 52% 29.94 in 10.0 mi WSW 3.5 mph - N/A   Mostly Cloudy
12:35 PM 86.5 °F 89.3 °F 67.1 °F 52% 29.93 in 10.0 mi SW 5.8 mph - N/A   Overcast
12:55 PM 90.7 °F 93.6 °F 66.7 °F 45% 29.92 in 10.0 mi South 8.1 mph - N/A   Mostly Cloudy
1:15 PM 91.6 °F 93.9 °F 65.7 °F 42% 29.91 in 10.0 mi South 11.5 mph - N/A   Scattered Clouds
1:35 PM 91.4 °F 93.2 °F 64.9 °F 41% 29.90 in 10.0 mi SW 11.5 mph 16.1 mph N/A   Mostly Cloudy
1:55 PM 90.1 °F 92.0 °F 65.1 °F 43% 29.89 in 10.0 mi SSE 9.2 mph - N/A   Mostly Cloudy
2:15 PM 93.6 °F 96.9 °F 66.4 °F 41% 29.88 in 10.0 mi South 8.1 mph - N/A   Mostly Cloudy
2:35 PM 91.6 °F 93.5 °F 64.8 °F 41% 29.87 in 10.0 mi South 8.1 mph - N/A   Mostly Cloudy
2:55 PM 91.8 °F 94.2 °F 65.8 °F 42% 29.87 in 10.0 mi South 3.5 mph - N/A   Mostly Cloudy
3:15 PM 93.2 °F 95.3 °F 64.9 °F 39% 29.86 in 10.0 mi South 5.8 mph - N/A   Mostly Cloudy
3:35 PM 93.2 °F 95.8 °F 65.7 °F 40% 29.85 in 10.0 mi SSE 9.2 mph - N/A   Mostly Cloudy
3:55 PM 93.4 °F 95.2 °F 64.6 °F 38% 29.85 in 10.0 mi SSW 8.1 mph - N/A   Mostly Cloudy
4:15 PM 91.6 °F 93.5 °F 64.6 °F 41% 29.85 in 10.0 mi South 6.9 mph 21.9 mph N/A   Mostly Cloudy
4:35 PM 92.7 °F 95.3 °F 65.8 °F 41% 29.84 in 10.0 mi South 10.4 mph - N/A   Mostly Cloudy
4:55 PM 93.4 °F 96.1 °F 65.8 °F 40% 29.84 in 10.0 mi South 8.1 mph - N/A   Mostly Cloudy
5:15 PM 90.1 °F 91.6 °F 64.4 °F 42% 29.84 in 10.0 mi South 6.9 mph 17.3 mph N/A   Mostly Cloudy
5:35 PM 91.2 °F 93.3 °F 64.9 °F 42% 29.84 in 10.0 mi South 13.8 mph - N/A   Scattered Clouds
5:55 PM 90.5 °F 92.2 °F 64.6 °F 42% 29.84 in 10.0 mi SSE 9.2 mph - N/A   Scattered Clouds
6:15 PM 88.9 °F 90.0 °F 64.0 °F 43% 29.84 in 10.0 mi SSE 10.4 mph - N/A   Scattered Clouds
6:35 PM 87.1 °F 88.6 °F 64.4 °F 47% 29.85 in 10.0 mi South 6.9 mph - N/A   Clear
6:55 PM 84.7 °F 86.1 °F 64.4 °F 50% 29.85 in 10.0 mi South 4.6 mph - N/A   Clear
7:15 PM 81.5 °F 83.3 °F 64.8 °F 57% 29.85 in 10.0 mi SSE 4.6 mph - N/A   Clear
7:35 PM 79.7 °F - 65.3 °F 61% 29.86 in 10.0 mi SSE 4.6 mph - N/A   Clear
7:55 PM 78.4 °F - 65.5 °F 64% 29.86 in 10.0 mi South 4.6 mph - N/A   Clear
8:15 PM 77.4 °F - 66.4 °F 69% 29.86 in 10.0 mi South 3.5 mph - N/A   Clear
8:35 PM 75.4 °F - 67.3 °F 76% 29.87 in 10.0 mi Calm Calm - N/A   Clear
8:55 PM 74.5 °F - 67.1 °F 78% 29.88 in 10.0 mi Calm Calm - N/A   Clear
9:15 PM 74.3 °F - 67.1 °F 78% 29.89 in 10.0 mi Calm Calm - N/A   Clear
9:35 PM 74.1 °F - 66.9 °F 78% 29.89 in 10.0 mi South 3.5 mph - N/A   Clear
9:55 PM 76.5 °F - 68.7 °F 77% 29.90 in 10.0 mi South 5.8 mph - N/A   Clear
10:15 PM 77.2 °F - 69.3 °F 76% 29.90 in 10.0 mi South 4.6 mph - N/A   Clear
10:35 PM 77.2 °F - 69.8 °F 78% 29.91 in 10.0 mi South 4.6 mph - N/A   Clear
10:55 PM 75.7 °F - 69.6 °F 81% 29.91 in 10.0 mi SSE 4.6 mph - N/A   Clear
11:15 PM 74.3 °F - 69.8 °F 86% 29.91 in 10.0 mi SSE 3.5 mph - N/A   Clear
11:35 PM 74.5 °F - 69.8 °F 85% 29.91 in 10.0 mi SSE 4.6 mph - N/A   Clear
11:55 PM 73.8 °F - 70.2 °F 88% 29.91 in 10.0 mi SSE 3.5 mph - N/A   Clear